TimeCST,TemperatureF,Dew PointF,Humidity,Sea Level PressureIn,VisibilityMPH,Wind Direction,Wind SpeedMPH,Gust SpeedMPH,PrecipitationIn,Events,Conditions,WindDirDegrees,DateUTC
12:15 AM,15.3,11.5,85,30.21,10.0,West,6.9,-,N/A,,Clear,270,2012-12-22 06:15:00
12:35 AM,15.1,11.3,85,30.21,10.0,West,5.8,-,N/A,,Clear,270,2012-12-22 06:35:00
12:55 AM,13.8,10.4,86,30.21,10.0,West,8.1,-,N/A,,Clear,270,2012-12-22 06:55:00
1:15 AM,14.4,11.1,87,30.21,10.0,West,5.8,-,N/A,,Clear,260,2012-12-22 07:15:00
1:35 AM,12.9,10.2,89,30.21,10.0,West,4.6,-,N/A,,Clear,270,2012-12-22 07:35:00
1:55 AM,13.1,10.2,88,30.21,10.0,West,6.9,-,N/A,,Clear,280,2012-12-22 07:55:00
2:15 AM,14.4,10.8,86,30.21,10.0,West,8.1,-,N/A,,Clear,270,2012-12-22 08:15:00
2:35 AM,13.5,10.4,88,30.21,10.0,West,4.6,-,N/A,,Clear,270,2012-12-22 08:35:00
2:55 AM,12.9,9.7,87,30.21,10.0,West,4.6,-,N/A,,Clear,270,2012-12-22 08:55:00
3:15 AM,11.3,9.0,90,30.20,10.0,West,4.6,-,N/A,,Clear,270,2012-12-22 09:15:00
3:35 AM,11.7,9.5,91,30.21,10.0,West,5.8,-,N/A,,Clear,260,2012-12-22 09:35:00
3:55 AM,11.8,9.5,90,30.21,10.0,West,6.9,-,N/A,,Clear,270,2012-12-22 09:55:00
4:15 AM,11.7,9.3,90,30.21,10.0,West,5.8,-,N/A,,Clear,260,2012-12-22 10:15:00
4:35 AM,11.5,9.3,91,30.21,10.0,West,8.1,-,N/A,,Clear,260,2012-12-22 10:35:00
4:55 AM,11.7,9.5,91,30.21,10.0,West,6.9,-,N/A,,Clear,260,2012-12-22 10:55:00
5:15 AM,11.7,9.3,90,30.21,10.0,West,5.8,-,N/A,,Clear,260,2012-12-22 11:15:00
5:35 AM,11.7,9.5,91,30.21,10.0,West,5.8,-,N/A,,Clear,260,2012-12-22 11:35:00
5:55 AM,11.8,9.5,90,30.21,10.0,West,6.9,-,N/A,,Clear,260,2012-12-22 11:55:00
6:15 AM,11.5,9.5,92,30.21,10.0,West,4.6,-,N/A,,Clear,280,2012-12-22 12:15:00
6:35 AM,11.8,9.5,90,30.21,10.0,West,3.5,-,N/A,,Clear,270,2012-12-22 12:35:00
6:55 AM,11.5,9.5,92,30.21,10.0,West,4.6,-,N/A,,Clear,270,2012-12-22 12:55:00
7:15 AM,11.1,8.8,90,30.21,10.0,Calm,Calm,-,N/A,,Clear,0,2012-12-22 13:15:00
7:35 AM,9.9,8.1,92,30.21,10.0,South,4.6,-,N/A,,Clear,190,2012-12-22 13:35:00
7:55 AM,11.3,9.5,92,30.21,10.0,South,3.5,-,N/A,,Clear,190,2012-12-22 13:55:00
8:15 AM,12.4,10.2,91,30.21,10.0,South,3.5,-,N/A,,Clear,190,2012-12-22 14:15:00
8:35 AM,13.5,11.3,91,30.21,10.0,South,5.8,-,N/A,,Clear,180,2012-12-22 14:35:00
8:55 AM,14.5,12.0,90,30.21,10.0,SSW,3.5,-,N/A,,Clear,210,2012-12-22 14:55:00
9:15 AM,15.4,12.4,88,30.21,10.0,Calm,Calm,-,N/A,,Clear,0,2012-12-22 15:15:00
9:35 AM,16.7,13.3,86,30.21,10.0,SSW,4.6,-,N/A,,Clear,210,2012-12-22 15:35:00
9:55 AM,18.7,14.9,85,30.21,10.0,SSW,5.8,-,N/A,,Clear,210,2012-12-22 15:55:00
10:15 AM,20.1,15.6,83,30.21,10.0,SSW,4.6,-,N/A,,Clear,210,2012-12-22 16:15:00
10:35 AM,21.0,16.0,81,30.19,10.0,SSW,4.6,-,N/A,,Clear,210,2012-12-22 16:35:00
10:55 AM,22.6,17.2,80,30.17,10.0,South,5.8,-,N/A,,Clear,180,2012-12-22 16:55:00
11:15 AM,23.9,17.6,77,30.16,10.0,South,6.9,-,N/A,,Clear,180,2012-12-22 17:15:00
11:35 AM,25.3,18.7,76,30.15,10.0,South,9.2,-,N/A,,Clear,180,2012-12-22 17:35:00
11:55 AM,26.2,19.0,74,30.13,10.0,South,10.4,-,N/A,,Clear,180,2012-12-22 17:55:00
12:15 PM,27.1,20.3,75,30.12,10.0,South,9.2,-,N/A,,Clear,180,2012-12-22 18:15:00
12:35 PM,27.5,20.8,76,30.12,10.0,South,9.2,-,N/A,,Clear,190,2012-12-22 18:35:00
12:55 PM,27.9,20.8,75,30.10,10.0,South,9.2,-,N/A,,Clear,190,2012-12-22 18:55:00
1:15 PM,28.4,21.4,75,30.10,10.0,South,8.1,-,N/A,,Clear,190,2012-12-22 19:15:00
1:55 PM,29.1,21.9,74,30.07,10.0,South,8.1,-,N/A,,Clear,180,2012-12-22 19:55:00
2:15 PM,29.8,22.8,75,30.06,10.0,South,9.2,-,N/A,,Clear,170,2012-12-22 20:15:00
2:35 PM,30.0,22.6,74,30.06,10.0,South,11.5,-,N/A,,Clear,180,2012-12-22 20:35:00
2:55 PM,30.6,23.4,75,30.05,10.0,South,10.4,-,N/A,,Clear,170,2012-12-22 20:55:00
3:15 PM,30.2,23.9,77,30.04,10.0,SSE,9.2,-,N/A,,Clear,160,2012-12-22 21:15:00
3:35 PM,30.0,24.3,79,30.04,10.0,South,10.4,-,N/A,,Clear,170,2012-12-22 21:35:00
3:55 PM,29.8,24.3,80,30.03,10.0,South,10.4,-,N/A,,Clear,170,2012-12-22 21:55:00
4:15 PM,29.3,24.4,82,30.02,10.0,South,9.2,-,N/A,,Clear,170,2012-12-22 22:15:00
4:35 PM,28.0,24.3,86,30.01,10.0,SSE,8.1,-,N/A,,Clear,150,2012-12-22 22:35:00
4:55 PM,27.5,23.9,86,30.02,10.0,SE,5.8,-,N/A,,Clear,140,2012-12-22 22:55:00
5:15 PM,26.4,22.8,86,30.02,10.0,ESE,3.5,-,N/A,,Clear,110,2012-12-22 23:15:00
5:35 PM,24.8,21.7,88,30.01,10.0,East,6.9,-,N/A,,Clear,80,2012-12-22 23:35:00
5:55 PM,24.8,22.1,89,30.01,10.0,East,5.8,-,N/A,,Clear,100,2012-12-22 23:55:00
6:15 PM,22.6,19.9,89,29.99,10.0,SE,6.9,-,N/A,,Clear,140,2012-12-23 00:15:00
6:35 PM,22.8,20.3,90,30.00,10.0,ESE,5.8,-,N/A,,Clear,110,2012-12-23 00:35:00
6:55 PM,22.1,19.9,91,29.98,10.0,SE,6.9,-,N/A,,Clear,130,2012-12-23 00:55:00
7:15 PM,20.7,18.7,92,29.98,10.0,SSE,6.9,-,N/A,,Clear,160,2012-12-23 01:15:00
7:35 PM,21.7,20.1,93,29.98,10.0,South,10.4,-,N/A,,Clear,170,2012-12-23 01:35:00
7:55 PM,22.8,20.7,91,29.98,10.0,SSE,6.9,-,N/A,,Clear,160,2012-12-23 01:55:00
8:15 PM,21.4,19.4,92,29.98,10.0,SSE,5.8,-,N/A,,Clear,150,2012-12-23 02:15:00
8:35 PM,21.2,19.4,93,29.97,10.0,SSE,6.9,-,N/A,,Clear,150,2012-12-23 02:35:00
8:55 PM,20.3,19.0,95,29.98,10.0,SE,4.6,-,N/A,,Clear,140,2012-12-23 02:55:00
9:15 PM,20.8,19.6,95,29.97,10.0,SE,5.8,-,N/A,,Clear,140,2012-12-23 03:15:00
9:35 PM,19.8,18.5,95,29.96,10.0,SE,5.8,-,N/A,,Clear,140,2012-12-23 03:35:00
9:55 PM,20.7,19.4,95,29.96,10.0,SSE,6.9,-,N/A,,Clear,150,2012-12-23 03:55:00
10:15 PM,20.1,19.0,96,29.95,10.0,SSE,6.9,-,N/A,,Clear,160,2012-12-23 04:15:00
10:35 PM,19.2,18.1,96,29.95,7.0,SSE,5.8,-,N/A,,Clear,160,2012-12-23 04:35:00
10:55 PM,18.5,17.4,96,29.95,7.0,Calm,Calm,-,N/A,,Clear,0,2012-12-23 04:55:00
11:15 PM,19.0,18.1,96,29.94,7.0,Calm,Calm,-,N/A,,Clear,0,2012-12-23 05:15:00
11:35 PM,19.8,19.2,98,29.94,5.0,Calm,Calm,-,N/A,,Clear,0,2012-12-23 05:35:00
11:55 PM,19.6,19.2,99,29.94,5.0,Calm,Calm,-,N/A,,Clear,0,2012-12-23 05:55:00